Wind_Speed
7 9 15 19 19 22 26 28 28 29 28 23 21 24 27 28 28 29 29 27 27 26 25 25 26 26 26 26 25 23 21 22 23 24 23 23 23 24 25 21 21 25 27 25 26 27 27 25 23 22 21 21 21 22 22 21 22 23 23 20 20 26 33 34 37 39 32 23 20 24 28 30 33 36 39 41 42 41 41 40 39 37 35 34 31
9 12 16 19 18 22 27 28 29 29 27 23 23 26 29 29 28 29 29 26 25 25 25 25 25 26 26 26 25 24 23 22 23 23 23 23 22 23 25 25 23 25 26 26 27 27 27 26 25 24 24 23 22 21 21 21 20 21 22 21 19 18 24 30 33 31 25 21 18 12 14 19 24 29 34 38 41 41 41 40 39 38 37 35 33
8 10 15 18 19 23 26 27 29 28 26 25 26 29 30 29 28 29 27 22 23 25 25 26 26 27 26 26 24 23 21 21 22 22 23 23 22 22 23 25 25 26 27 27 28 28 27 27 26 25 24 24 23 22 21 20 20 19 18 19 19 18 18 22 27 29 27 25 19 9 7 10 13 18 27 36 40 41 40 40 40 40 39 37 35
9 10 14 18 21 24 26 28 28 26 27 29 30 32 32 29 28 27 22 19 23 27 28 28 27 27 26 27 25 22 20 20 21 22 23 23 23 23 23 24 25 26 27 28 29 28 28 28 27 26 24 23 22 22 21 20 20 19 17 16 17 17 16 16 20 28 31 22 11 5 4 6 8 11 18 28 34 37 39 41 42 41 41 39 38
9 10 13 17 21 24 26 27 25 25 28 30 31 32 31 30 29 24 19 20 26 28 28 28 27 27 27 26 24 21 20 21 22 23 24 25 25 25 24 25 25 26 27 28 30 29 28 29 28 27 25 23 23 23 23 21 19 18 17 16 16 16 16 16 17 24 32 27 16 7 4 4 8 10 10 14 24 34 38 40 41 42 42 41 41
8 10 13 17 21 23 25 24 23 26 29 31 32 30 31 32 27 21 20 25 28 26 25 25 26 26 25 23 20 19 19 20 21 22 25 27 27 27 27 27 26 26 27 28 29 30 29 29 29 28 27 26 25 25 25 23 20 20 18 17 16 17 18 17 17 21 29 34 29 18 10 6 5 8 8 4 13 25 31 34 38 40 41 41 42
8 11 14 17 20 22 23 23 26 29 32 33 31 28 30 30 22 21 27 30 28 24 21 22 25 26 23 20 19 18 18 20 22 23 25 26 27 28 28 27 26 26 27 28 28 29 30 29 29 30 30 29 27 26 26 24 23 21 19 18 17 17 19 18 18 20 22 30 36 33 27 18 9 9 11 4 5 11 20 29 34 36 38 40 42
9 11 13 16 19 21 23 26 30 32 34 34 29 28 29 23 19 26 31 31 28 23 19 19 22 22 20 19 19 18 17 19 22 23 24 25 26 27 27 27 26 26 26 27 28 28 29 30 30 31 32 31 29 27 26 25 24 23 20 19 17 17 18 20 21 21 17 21 31 35 36 28 17 16 19 11 6 4 10 18 26 33 36 38 40
10 11 13 16 20 23 26 29 32 33 34 33 30 31 28 21 24 31 30 29 29 26 20 18 20 19 18 18 19 19 18 18 20 21 23 23 24 25 26 27 27 27 26 27 28 28 29 30 30 31 32 32 30 28 28 26 25 24 21 20 19 18 18 19 22 24 21 22 25 27 31 31 22 17 19 15 8 6 6 8 14 20 24 34 40
11 13 15 18 21 25 28 30 32 32 33 33 32 33 29 26 29 31 29 30 31 30 25 20 19 19 20 20 19 19 19 18 19 20 21 21 22 23 23 25 26 26 26 26 27 29 29 29 29 30 30 31 32 31 30 29 26 25 24 22 21 20 19 18 20 24 25 26 26 24 24 24 19 13 13 13 10 7 6 5 10 13 14 26 37
11 12 15 19 22 27 30 31 33 34 34 35 35 34 31 30 32 31 31 32 33 33 29 24 22 22 23 22 19 19 17 16 17 18 18 19 20 21 21 22 25 25 25 26 27 28 29 29 28 28 28 30 33 34 33 31 28 27 27 25 23 21 21 20 20 22 25 27 27 27 25 23 20 15 15 15 10 6 4 3 8 16 17 19 28
10 10 13 19 23 27 31 31 31 33 34 37 38 36 34 34 34 33 33 36 36 33 30 28 28 28 26 23 21 19 16 15 16 16 16 17 18 20 21 22 23 23 24 26 27 27 28 29 30 29 29 29 31 33 32 30 29 29 28 27 25 23 22 21 20 21 23 26 28 28 29 29 27 25 24 22 17 13 10 4 6 13 14 13 19
11 11 13 16 20 24 26 26 28 30 34 37 37 35 35 34 34 34 34 36 34 30 29 31 33 33 30 26 24 21 16 14 15 15 16 16 17 19 21 22 21 22 24 26 28 29 29 31 32 32 32 31 31 32 32 31 32 31 29 28 27 26 23 21 21 21 22 24 27 29 30 30 30 30 29 26 24 21 14 6 7 12 9 8 13
11 12 12 13 18 22 22 22 26 29 33 35 35 35 36 35 35 36 35 34 32 31 33 35 36 36 33 30 26 21 16 14 14 16 17 17 17 19 20 21 21 23 25 27 30 31 32 33 34 34 34 33 32 32 34 34 34 32 29 28 28 27 25 22 21 22 22 23 25 28 29 30 32 33 31 27 25 23 19 12 7 7 5 4 8
11 11 11 14 21 23 19 21 26 30 33 33 33 35 35 36 37 37 37 37 37 38 38 38 37 36 36 35 29 19 15 14 15 17 18 19 20 19 20 21 23 25 27 31 33 34 34 35 36 36 34 34 33 32 32 34 33 32 31 30 29 28 27 25 23 22 22 23 24 26 28 30 32 35 34 30 26 24 25 23 13 6 4 2 4
10 11 11 16 23 21 17 23 28 30 31 31 32 33 34 36 37 38 39 39 40 41 40 39 37 35 37 35 26 17 16 16 17 19 20 22 21 20 20 21 24 28 32 36 38 38 36 35 36 36 35 34 33 32 31 32 32 32 32 31 30 29 28 27 26 24 23 23 23 24 26 29 31 34 36 34 30 25 25 28 24 15 8 4 3
11 11 11 18 22 17 17 25 29 29 30 30 31 31 32 35 36 37 40 41 42 42 39 37 34 33 34 27 19 16 18 18 20 23 24 22 20 19 21 25 29 34 38 40 41 40 37 34 35 36 35 34 33 32 31 32 33 33 32 31 31 30 29 28 27 25 24 23 22 22 24 27 30 31 34 34 33 29 25 25 28 25 17 8 5
11 10 12 19 18 14 20 28 29 28 29 30 31 30 31 34 34 37 41 44 43 40 35 33 32 31 30 23 18 19 21 23 26 25 22 20 21 24 28 32 36 39 40 40 38 37 36 33 32 34 34 34 33 32 32 32 32 33 32 31 32 31 29 28 28 27 25 22 21 21 22 24 27 28 30 32 33 31 28 26 27 28 25 16 8
10 9 11 15 15 16 23 28 28 28 28 29 30 29 31 33 34 38 42 43 42 38 34 33 31 31 29 25 24 25 26 28 27 23 21 24 28 32 35 38 40 39 37 35 34 34 33 32 31 32 33 33 32 32 31 31 31 31 31 31 32 30 29 28 28 28 26 22 20 20 20 21 25 26 27 29 31 31 31 29 28 27 27 24 17
9 9 10 12 15 19 25 27 26 27 27 27 28 28 30 33 36 39 42 43 40 37 35 34 32 31 30 30 31 31 30 28 24 22 26 30 33 36 39 40 38 36 34 33 32 32 31 31 31 31 32 32 32 32 30 30 31 31 31 31 30 29 29 29 28 28 26 22 20 19 19 20 22 24 25 26 28 30 31 31 29 28 28 27 24
10 9 10 12 16 21 25 25 26 26 25 25 26 27 29 32 35 37 41 42 38 35 36 34 31 31 32 35 35 32 28 25 25 28 31 32 35 38 38 36 34 33 32 31 31 30 29 29 30 31 31 31 31 31 30 29 30 31 30 30 29 29 28 28 27 27 26 23 20 18 18 19 20 21 23 24 25 27 29 30 29 28 28 28 27
11 10 10 12 16 21 24 24 24 24 22 23 25 27 29 31 33 36 40 40 37 34 33 32 32 32 33 31 29 27 27 28 29 29 30 32 36 36 35 33 32 31 30 30 31 29 26 25 27 28 30 31 31 30 29 28 28 29 28 27 27 27 28 28 27 27 26 24 21 18 18 18 18 20 21 22 23 25 26 27 28 28 27 28 29
12 11 11 12 17 21 22 23 23 21 20 22 24 27 29 31 34 39 41 39 35 32 32 33 32 30 28 27 28 28 28 27 26 26 29 33 35 33 31 29 28 28 28 29 28 25 22 22 24 25 25 27 29 29 27 26 26 28 27 25 25 26 27 28 28 28 28 25 22 20 19 18 17 18 19 20 22 23 24 25 26 27 27 26 29
12 11 11 14 18 19 19 20 21 20 20 22 23 25 28 31 35 40 41 35 32 33 33 31 27 27 29 30 29 27 24 24 26 28 31 34 31 27 25 24 24 24 24 24 24 22 22 23 24 23 22 22 23 23 23 24 25 27 26 25 25 25 26 28 29 29 28 27 25 23 21 19 17 17 18 19 20 21 22 24 24 25 26 25 27
13 12 11 13 15 16 17 18 19 20 19 19 22 25 29 31 33 37 37 34 34 34 31 25 26 31 32 27 24 23 23 26 28 29 31 30 27 25 26 25 25 23 23 24 24 23 23 22 20 19 19 19 19 18 19 21 23 24 24 24 24 24 25 27 29 29 29 28 27 26 25 21 19 18 17 17 19 20 20 22 23 23 24 24 23
13 13 12 12 14 14 16 18 20 19 17 17 20 23 27 31 33 34 35 34 34 31 27 26 27 28 25 21 22 23 25 26 27 27 29 28 26 26 27 26 24 22 22 23 23 22 20 17 17 19 20 20 20 19 19 20 21 21 22 22 23 23 25 26 27 29 29 29 29 29 27 24 21 20 19 17 17 18 19 21 22 22 22 22 21
12 12 12 14 14 14 17 19 18 15 16 18 20 23 27 32 34 35 34 32 30 28 27 27 26 23 21 23 26 27 26 26 26 27 28 27 27 27 26 23 21 21 21 22 22 22 21 21 22 23 24 24 23 22 21 21 21 21 21 22 23 24 25 26 27 28 30 30 30 30 29 27 25 23 21 19 17 17 18 20 21 21 21 20 19
13 12 13 15 15 14 17 20 16 12 15 17 18 23 28 31 33 35 32 30 28 27 27 27 26 25 25 27 28 28 27 26 26 26 27 27 27 25 21 19 20 22 23 23 24 25 25 26 25 24 24 25 25 24 23 22 22 21 21 22 23 24 25 26 26 28 29 30 31 32 31 29 27 25 23 20 18 18 18 19 20 20 20 20 19
14 14 15 15 15 14 17 18 15 13 15 16 15 21 27 29 32 33 30 28 27 27 27 27 26 26 27 28 28 27 26 25 25 25 25 25 24 22 19 20 24 26 26 27 27 27 27 27 27 25 25 25 26 26 24 22 21 21 21 21 21 23 25 26 26 27 28 30 31 32 32 31 29 26 24 21 19 19 18 19 19 20 20 20 19
16 16 15 14 14 15 16 16 13 12 16 17 18 21 25 30 32 31 28 27 26 26 26 26 26 26 27 27 26 24 23 23 23 24 25 25 24 22 21 24 27 29 30 30 29 28 27 26 26 26 26 25 25 26 25 23 21 21 21 21 20 21 23 25 26 26 27 29 31 32 32 32 30 28 26 24 21 20 20 20 19 19 20 21 20
17 16 15 14 14 15 15 12 11 15 20 22 22 23 26 31 33 29 26 26 26 25 25 25 25 26 26 25 24 23 23 23 23 24 25 24 24 24 25 27 29 30 30 29 28 27 27 26 26 27 27 27 26 25 25 25 23 22 22 21 20 20 21 23 24 24 26 27 29 31 31 30 29 29 28 26 23 22 22 22 20 19 20 22 22
19 17 15 16 17 16 13 11 14 20 24 25 25 25 26 30 31 27 25 25 25 25 25 25 25 25 24 24 23 23 23 23 24 23 23 23 23 25 27 28 29 30 29 28 27 26 26 26 25 26 27 27 27 26 25 25 25 24 23 22 21 21 21 22 23 24 26 27 28 29 30 30 30 29 29 28 26 24 24 23 23 22 22 23 24
19 18 17 17 19 17 14 15 19 23 26 27 26 25 26 29 29 27 25 25 25 25 24 24 24 24 23 23 24 24 24 24 23 23 23 23 24 25 27 27 28 28 27 25 25 25 25 25 25 25 26 27 27 26 25 25 26 26 25 24 24 24 23 24 25 25 26 27 28 28 28 29 29 29 29 29 27 25 25 24 23 24 24 25 26
19 20 18 19 20 19 18 20 23 26 29 28 23 23 28 31 28 25 24 25 25 25 24 23 23 24 24 24 24 24 24 23 23 23 23 23 24 25 25 25 25 25 24 23 24 24 25 26 26 25 25 26 27 26 25 26 26 27 27 27 27 27 26 26 27 27 26 27 28 28 28 28 28 29 29 29 27 26 25 24 24 25 26 26 27
19 19 19 22 24 22 21 24 26 30 31 26 21 24 30 32 28 23 23 24 25 24 24 23 24 24 24 24 24 24 24 24 23 23 24 24 24 24 25 24 24 23 23 24 24 25 26 28 28 27 26 26 26 25 24 25 26 26 26 27 28 28 27 27 28 28 28 29 30 29 28 27 27 28 28 28 27 27 25 25 25 26 26 26 27
20 20 22 26 26 24 25 27 30 33 29 22 22 27 31 30 26 22 23 24 24 23 23 24 25 25 24 24 24 24 24 24 24 25 24 24 24 24 24 24 24 24 23 23 24 24 25 26 27 27 26 26 26 25 24 25 27 28 28 28 28 27 26 27 27 28 29 30 30 29 28 28 27 27 28 27 27 27 27 26 26 26 26 27 28
26 28 28 27 27 28 29 31 34 31 23 21 27 31 30 27 24 22 24 25 23 23 24 25 25 25 25 24 25 25 24 24 25 24 23 23 22 23 23 23 23 23 23 23 24 25 26 26 26 26 25 25 25 23 20 19 18 20 22 24 25 24 24 24 26 27 28 28 29 29 28 28 28 28 28 28 28 27 27 27 26 25 25 26 28
31 31 28 28 30 31 32 34 33 25 22 27 32 31 27 24 23 23 24 24 23 24 25 25 26 26 26 25 25 25 25 24 24 23 23 23 22 23 25 26 24 23 24 27 28 29 29 28 26 25 23 21 22 21 19 17 15 13 12 14 16 18 20 22 23 24 25 27 28 29 29 29 30 30 29 29 29 30 29 28 27 25 25 25 27
30 29 28 30 32 31 33 33 27 23 26 33 33 28 25 23 24 24 24 23 24 25 25 26 27 26 26 25 25 25 25 24 24 24 24 25 25 26 27 26 23 23 25 28 28 27 28 28 25 21 19 18 19 20 17 14 13 11 9 8 8 10 14 18 20 22 23 24 26 28 29 30 30 30 30 29 29 30 31 30 28 25 24 26 28
30 31 32 33 32 30 30 29 25 26 31 32 29 26 24 24 25 24 24 25 26 26 26 27 27 27 26 26 25 25 25 25 26 26 26 28 29 29 27 25 24 24 24 25 23 22 24 25 20 16 18 19 19 19 16 12 10 9 8 7 7 8 10 14 16 19 21 23 25 26 28 29 30 30 30 30 30 32 32 31 29 26 25 27 28
32 34 34 32 29 27 28 27 27 31 33 29 27 26 24 24 25 24 25 27 27 27 27 27 27 28 27 26 26 26 26 26 26 27 28 29 28 26 24 23 24 22 20 21 21 21 21 20 17 16 19 21 21 19 16 12 11 10 9 8 8 9 11 12 14 16 18 20 22 25 28 29 30 31 32 33 33 34 33 32 31 31 31 30 27
34 34 33 31 28 28 31 29 29 32 31 28 27 26 24 24 25 25 28 29 27 27 28 28 28 28 27 27 27 27 27 26 26 26 28 28 26 23 22 23 22 20 19 21 22 21 20 20 19 19 20 20 20 19 16 14 14 13 12 11 11 11 12 13 14 15 17 18 19 22 25 28 30 32 34 35 36 36 34 33 34 34 34 33 29
34 32 32 32 30 29 31 29 29 30 29 27 27 26 24 25 25 27 30 28 27 28 29 29 29 28 28 28 27 28 27 26 25 25 25 25 25 24 23 22 20 19 20 20 20 19 19 19 19 19 18 17 18 20 19 18 18 17 15 14 14 14 14 14 15 15 16 17 18 19 21 25 29 33 34 34 35 35 34 33 34 33 31 32 31
33 31 32 33 30 29 30 29 29 30 28 27 27 26 26 26 27 29 30 28 28 30 30 29 29 28 28 28 27 28 28 26 25 25 24 23 24 23 22 21 19 18 18 17 18 18 17 17 18 19 19 19 19 21 20 17 15 14 14 14 14 15 15 16 17 18 17 16 17 18 18 18 21 24 25 24 24 26 27 26 26 25 25 27 27
31 31 33 33 30 30 30 29 30 31 29 27 27 28 27 27 29 31 29 29 31 32 31 30 30 29 29 28 28 28 27 25 25 24 22 22 22 22 21 20 19 18 17 16 17 17 16 16 17 18 19 20 22 22 19 15 13 12 12 12 13 14 15 15 16 17 18 17 17 17 16 14 15 16 17 17 17 19 20 19 17 18 21 24 26
30 32 34 33 31 30 30 29 31 31 29 28 29 29 28 29 31 31 30 30 32 32 31 30 30 29 29 28 28 28 27 26 26 24 22 21 21 21 20 20 19 18 16 16 16 16 17 17 17 17 18 19 20 20 17 15 13 11 10 11 11 12 12 13 14 16 17 17 16 15 14 13 13 14 13 14 15 16 16 15 15 17 21 25 26
30 32 33 32 30 30 30 30 31 31 30 30 32 32 31 31 31 30 31 32 32 31 30 30 30 30 29 28 27 27 27 28 27 25 24 23 23 22 21 20 19 18 17 18 19 20 19 17 16 18 17 16 16 17 15 15 14 12 12 12 9 6 7 9 10 10 10 11 10 9 9 9 10 10 10 11 12 13 13 13 15 18 24 26 26
31 32 32 31 29 30 30 30 30 31 33 33 34 34 33 32 32 31 32 33 32 31 30 30 29 29 28 27 27 26 27 27 27 25 24 23 25 24 23 22 20 19 19 21 22 24 22 19 18 19 15 12 13 14 14 13 14 13 12 9 3 3 5 6 7 8 9 9 9 9 9 9 10 12 12 12 12 12 13 15 19 23 25 24 23
31 30 31 32 31 30 31 30 30 32 34 34 35 35 35 33 32 32 33 33 33 32 30 29 29 28 28 28 27 26 26 25 26 26 26 24 23 21 21 23 23 20 19 21 23 23 21 20 20 19 13 10 11 12 12 11 11 10 8 3 4 7 7 8 9 10 12 12 12 12 12 13 14 16 17 16 17 17 18 20 23 25 24 23 23
30 30 31 33 32 31 31 30 31 34 35 35 36 36 35 34 33 34 34 34 33 32 29 28 29 28 28 28 27 27 26 25 24 25 26 27 26 21 16 17 20 21 20 19 20 20 20 22 23 19 12 9 9 10 10 10 8 7 6 6 7 8 8 9 9 10 13 14 14 14 13 14 15 16 16 17 18 21 21 20 21 23 24 24 24
30 31 32 33 33 33 32 31 33 35 36 36 36 36 36 35 35 35 35 35 34 30 27 27 28 28 28 28 27 26 26 25 24 23 22 23 26 27 23 18 17 19 21 20 20 21 22 24 25 20 13 10 10 10 9 8 8 8 9 10 10 9 10 9 8 11 13 15 14 14 13 14 16 16 16 17 19 21 22 21 21 21 21 23 24
Wind_Direction
0 7 10 17 21 13 5 359 353 349 347 347 349 349 347 344 340 338 337 336 332 333 337 337 335 334 331 327 323 321 319 316 313 311 308 304 298 290 285 285 296 304 306 307 309 310 309 309 311 312 317 319 315 310 305 296 289 289 292 286 259 234 224 219 213 207 201 200 209 215 216 218 219 219 219 220 223 224 224 225 227 229 231 233 234
7 10 10 12 9 2 357 352 348 344 342 346 347 345 342 339 337 335 333 329 327 328 330 330 328 327 326 324 322 320 318 318 316 313 310 306 302 296 291 289 292 298 302 302 303 304 303 305 307 308 309 312 315 313 306 302 297 288 286 287 288 267 239 227 215 203 195 195 199 201 210 218 222 222 222 221 221 223 223 224 226 229 231 233 234
15 16 9 5 358 353 351 347 344 342 343 345 342 339 337 333 332 331 328 325 329 332 331 328 324 322 319 315 314 315 317 317 318 316 312 307 305 302 298 295 294 294 296 297 298 299 299 299 301 304 306 307 310 312 307 302 300 296 287 277 280 282 263 241 222 207 200 200 197 188 193 210 223 225 226 225 221 220 221 223 226 229 231 232 232
11 13 4 358 352 349 347 344 343 345 346 343 338 334 330 326 327 327 322 321 330 333 330 326 322 321 319 313 307 305 310 315 318 318 314 311 308 308 306 304 302 298 296 295 293 293 294 296 297 295 300 306 306 306 304 301 300 298 292 278 270 272 268 256 237 219 211 202 183 181 189 194 218 220 222 225 221 218 220 222 224 226 228 229 229
9 6 356 352 349 346 344 342 346 350 345 338 333 329 324 320 320 318 311 319 328 328 327 324 321 321 322 319 312 308 313 317 318 318 315 313 310 309 310 308 306 303 299 296 293 292 290 291 293 291 292 299 301 299 297 297 298 296 292 283 270 263 260 255 248 232 223 215 202 189 155 182 221 206 201 221 217 216 219 219 220 222 224 225 226
8 360 350 347 345 343 343 345 349 345 338 333 328 324 321 315 312 315 322 328 328 325 326 326 322 320 320 318 316 316 318 316 315 314 312 312 310 309 309 309 308 304 300 297 295 293 291 288 288 288 288 291 294 294 292 291 290 290 290 284 274 267 261 254 248 240 232 227 226 226 222 240 245 173 156 196 210 214 218 218 219 220 221 222 223
2 353 346 344 344 344 344 345 344 337 332 328 322 321 322 317 315 325 329 326 322 321 325 327 325 321 317 315 314 314 312 311 311 311 310 310 309 306 306 308 310 308 303 299 298 296 294 290 286 286 286 286 287 286 286 287 286 284 284 281 278 273 262 255 251 245 236 232 233 236 240 259 271 195 182 170 176 212 219 217 220 220 220 221 223
356 348 343 345 346 347 344 341 338 333 329 325 319 321 323 318 317 321 320 317 315 314 316 322 324 321 317 314 312 310 308 309 311 313 312 311 309 305 305 307 308 307 305 303 302 301 298 294 289 288 286 282 280 279 281 284 283 280 279 276 275 272 261 255 255 249 238 233 233 234 238 249 255 221 210 201 162 183 209 213 220 220 219 222 223
352 344 342 347 348 347 343 339 336 332 331 327 322 324 322 315 317 320 317 316 314 309 307 314 317 312 308 306 303 303 306 309 314 317 318 317 313 311 311 311 309 305 303 303 303 304 302 298 294 290 285 280 277 276 278 278 276 275 274 273 270 270 264 258 257 254 245 237 233 232 234 239 244 236 228 220 196 188 191 197 209 210 219 225 224
348 345 345 346 345 344 342 339 337 336 334 330 326 325 320 315 319 320 317 317 315 309 303 305 309 303 297 297 294 297 305 311 318 321 322 322 319 317 316 315 314 311 307 305 305 306 306 302 299 294 287 282 278 277 278 275 273 273 273 271 268 268 266 259 257 258 254 246 237 231 230 231 233 236 236 228 217 215 207 189 186 183 206 224 222
345 342 341 341 342 345 345 343 341 339 338 336 333 331 327 323 324 322 320 319 316 311 303 300 304 300 292 290 287 293 304 311 316 319 321 324 321 318 317 316 316 315 313 311 309 309 309 305 302 298 292 288 283 277 275 272 272 275 274 269 264 263 265 261 258 259 257 252 244 234 229 228 227 224 224 219 215 222 205 172 183 191 204 219 219
340 339 341 343 345 347 346 343 342 343 345 344 340 338 336 333 330 328 326 323 317 312 305 303 307 302 290 282 279 284 294 303 309 311 314 321 321 316 314 314 314 315 315 315 314 312 309 306 305 302 297 294 287 277 271 271 272 274 274 269 264 262 261 258 254 255 254 252 250 242 232 230 230 230 227 220 216 219 214 193 169 189 209 227 220
344 348 346 345 346 343 340 341 345 349 348 343 340 338 336 333 332 329 327 326 322 317 313 313 314 306 291 279 275 275 280 292 298 303 309 315 316 314 310 308 310 313 314 314 313 312 308 304 302 300 298 295 290 279 273 273 275 274 272 269 266 263 259 254 250 252 252 250 252 250 240 233 231 232 233 228 222 219 218 213 176 178 198 222 211
353 350 343 340 338 333 333 342 348 347 344 339 337 338 336 333 333 330 328 329 328 323 320 319 317 310 297 283 274 271 274 285 292 297 304 308 311 310 304 302 303 306 309 309 310 309 305 301 298 295 294 294 292 283 275 272 272 271 269 268 267 265 262 257 252 252 251 248 250 251 247 241 234 231 233 233 226 215 212 212 188 175 188 175 184
351 342 334 334 330 326 334 347 345 341 338 336 334 335 335 334 333 330 329 329 328 324 321 318 315 312 303 288 275 270 275 284 292 297 302 305 308 305 298 296 299 301 304 305 306 305 302 298 294 292 291 293 293 287 278 271 268 267 267 267 266 267 265 260 257 254 249 245 245 247 248 246 241 234 232 233 230 221 217 213 195 167 186 163 162
344 337 333 331 326 324 340 345 339 335 333 331 331 331 332 333 332 330 328 326 325 323 320 318 315 314 309 293 276 275 288 294 300 303 306 307 306 302 297 297 299 301 303 303 301 299 296 292 288 286 288 290 290 288 281 273 268 265 265 265 264 264 263 261 259 257 252 248 245 245 245 245 243 239 234 231 231 229 223 215 204 193 199 200 186
340 334 331 327 321 325 339 337 331 330 328 326 327 327 329 330 330 330 328 325 322 318 316 318 318 320 316 299 282 294 303 304 309 307 307 309 307 306 305 304 304 303 302 300 297 294 291 286 281 281 283 286 286 285 281 275 269 265 263 261 261 261 262 261 261 258 256 253 249 246 244 244 244 241 235 231 229 227 224 217 209 206 207 203 195
331 328 326 321 315 320 330 328 325 324 322 322 323 324 327 328 329 330 327 323 320 316 313 316 320 322 320 307 299 308 308 307 309 306 306 312 313 312 310 308 306 304 302 298 294 291 288 283 278 277 280 282 282 281 280 275 267 262 259 257 258 260 259 259 260 258 257 257 252 248 246 245 245 241 236 231 226 223 221 217 213 210 209 209 205
322 320 318 313 308 315 323 322 321 320 319 320 320 322 325 328 329 330 326 322 319 315 313 314 316 317 314 307 304 307 306 305 305 303 309 314 313 312 311 308 306 303 301 297 292 290 287 282 277 276 277 278 278 279 279 273 264 258 256 254 254 255 253 253 255 255 256 256 252 250 246 246 247 243 239 233 225 219 216 215 214 211 211 214 212
314 312 310 304 303 312 319 318 317 317 316 317 319 322 326 329 329 328 325 321 316 314 314 313 314 314 313 310 307 304 303 304 305 308 313 313 312 311 309 306 304 301 299 295 292 289 286 283 279 276 275 274 275 277 276 270 262 256 254 252 252 251 248 250 252 252 254 254 251 250 247 247 247 244 239 233 225 218 214 212 211 209 209 212 210
309 309 305 300 303 311 315 315 314 313 313 317 321 323 327 328 327 327 324 318 312 311 312 311 312 313 312 309 305 305 307 309 311 312 312 311 311 309 305 302 301 299 297 293 289 286 284 284 282 277 273 271 272 274 274 269 260 254 251 250 250 249 247 248 249 249 250 251 249 249 248 248 247 242 238 233 226 219 214 210 208 206 206 207 206
308 306 300 297 303 309 311 312 312 312 315 321 323 325 327 327 328 328 324 318 313 312 313 313 313 311 309 309 311 315 317 315 313 312 312 313 310 306 303 300 298 296 294 290 285 282 283 289 291 284 275 270 271 273 273 268 258 251 249 249 249 248 245 244 244 244 245 245 244 244 246 247 244 240 236 231 226 221 214 210 208 205 205 206 206
308 304 297 297 303 307 308 310 312 313 318 322 325 327 327 327 330 329 324 317 315 315 315 313 311 311 313 316 317 318 318 317 318 319 318 314 308 304 302 299 298 298 296 291 285 282 287 296 299 295 286 276 269 267 268 264 254 248 248 249 249 247 245 243 240 240 242 240 237 237 240 241 237 236 235 231 227 222 216 212 209 207 206 207 207
307 301 294 297 303 306 308 310 313 316 319 323 327 329 329 328 330 329 323 319 319 319 315 313 314 317 318 315 316 321 326 327 325 321 318 313 308 308 307 305 304 303 302 299 295 292 296 298 296 296 297 292 279 269 267 265 256 248 247 249 248 246 246 245 242 240 239 237 234 233 236 236 231 229 231 230 227 222 216 213 212 211 210 209 208
307 304 300 303 306 308 309 312 315 319 322 328 331 331 331 330 330 328 325 321 321 318 314 316 320 318 315 315 321 328 328 324 320 316 313 309 308 312 312 308 304 302 303 304 301 298 297 296 296 298 300 303 299 289 282 275 264 254 252 251 250 248 247 247 245 241 239 237 236 236 237 236 230 229 230 228 225 222 218 216 215 214 214 213 210
309 306 305 309 311 311 312 314 317 323 330 334 333 331 333 333 330 327 324 321 319 316 314 317 318 316 317 324 328 326 321 317 316 314 309 305 304 306 305 301 300 303 307 306 301 300 302 304 308 309 307 305 303 299 292 286 276 266 260 258 257 255 252 249 247 244 241 240 238 238 239 236 233 232 232 229 226 224 221 218 218 216 216 215 212
307 307 309 313 316 316 316 316 320 331 338 335 332 332 335 335 332 327 323 321 319 317 316 316 315 317 324 328 326 322 318 315 314 310 306 302 301 299 299 301 307 313 314 311 310 311 314 314 311 307 304 302 300 297 291 287 283 275 266 261 260 259 255 250 247 245 244 242 240 239 239 237 236 236 236 233 229 227 225 224 224 221 218 215 213
309 311 313 316 320 321 319 322 329 339 336 331 332 334 334 334 332 328 323 321 319 318 317 316 316 317 320 321 320 316 314 313 310 307 304 302 300 297 300 311 318 318 313 311 311 310 308 307 305 301 298 296 294 292 287 283 282 277 270 264 260 257 254 250 247 245 244 243 242 240 238 238 238 239 239 236 233 231 228 227 229 226 221 216 215
312 315 317 320 324 323 321 328 337 337 329 325 327 333 336 335 333 329 324 322 321 320 318 317 318 319 318 317 313 308 308 309 310 310 310 309 306 304 308 316 317 314 311 308 305 303 301 299 297 295 293 291 289 285 280 276 274 274 272 269 263 256 251 248 244 243 242 242 242 240 238 237 238 240 240 239 239 237 232 229 229 227 222 218 216
315 317 321 323 323 323 325 332 338 333 330 331 330 332 338 338 334 329 325 325 323 320 319 319 319 318 315 313 309 307 308 311 312 314 314 311 310 310 312 314 312 309 307 305 302 298 295 292 291 291 289 285 281 277 274 269 266 266 266 265 261 255 250 244 240 240 240 241 240 239 238 236 236 237 237 236 238 239 237 236 235 232 226 221 217
319 321 323 325 326 327 331 336 337 334 336 337 336 336 338 337 333 329 326 326 325 321 320 319 317 315 312 311 312 312 313 314 313 312 310 308 309 310 311 310 308 306 304 302 299 296 292 289 287 287 285 281 275 271 269 266 262 260 258 258 258 253 248 245 241 240 241 241 239 237 237 235 234 233 232 231 234 236 237 237 238 239 235 228 221
323 325 327 331 331 332 338 342 340 339 340 339 339 339 338 334 332 328 326 326 324 322 321 318 315 314 314 316 318 317 316 313 311 310 310 309 308 309 309 307 305 305 303 300 297 293 290 289 286 283 281 278 274 268 264 260 257 255 254 257 258 254 250 247 245 244 243 242 239 237 236 234 232 230 228 228 229 232 234 233 234 238 241 237 231
329 333 334 336 336 337 343 346 342 342 341 339 340 341 338 334 329 326 325 324 323 322 320 318 318 318 320 321 320 317 315 312 311 311 311 310 309 306 305 304 303 303 301 297 295 293 291 290 287 284 281 277 274 267 260 255 253 252 252 255 256 255 251 248 246 244 243 241 238 236 234 232 230 228 226 225 225 227 229 231 233 236 238 239 238
340 339 339 341 342 342 344 345 344 343 339 337 339 341 338 334 329 325 325 324 323 323 322 321 323 324 323 322 318 316 315 313 313 313 311 310 308 305 303 302 301 300 299 296 293 293 293 292 290 286 281 276 272 266 258 253 250 249 250 251 252 252 250 249 247 244 242 241 238 233 230 228 226 224 222 222 222 223 225 228 230 231 233 236 237
345 345 348 345 341 341 343 346 346 340 337 338 343 341 336 333 330 326 325 325 323 324 325 326 326 325 323 321 320 318 317 316 314 313 311 309 306 304 303 302 299 297 297 295 293 291 290 290 291 289 282 277 273 267 259 254 251 249 249 248 248 248 247 247 247 244 242 242 239 234 230 227 224 222 220 219 219 220 223 226 226 227 229 232 235
351 351 345 338 339 345 348 347 342 337 338 348 350 341 334 332 330 327 326 327 326 326 328 328 327 325 324 323 322 320 317 316 315 313 310 308 306 305 303 301 300 298 295 291 290 288 285 282 283 282 278 276 279 276 266 257 252 249 247 245 244 242 241 241 242 242 242 242 238 234 231 229 227 224 222 220 219 218 219 220 220 223 226 229 232
350 343 339 341 348 351 348 342 337 337 347 356 348 340 335 332 332 331 329 330 330 331 331 329 327 327 326 324 322 319 316 315 314 312 309 309 307 305 304 304 301 299 297 296 295 293 289 286 284 283 280 277 283 288 282 273 267 258 249 243 238 234 233 235 239 241 241 240 238 236 234 232 230 228 225 221 218 215 214 214 216 220 222 225 230
344 341 347 354 353 348 344 339 338 345 359 355 345 340 337 335 335 334 332 333 333 332 331 330 329 328 326 323 320 318 316 314 313 311 310 309 307 305 308 311 305 299 301 306 306 304 303 301 297 296 294 289 293 301 300 295 297 291 274 258 243 232 228 230 235 238 237 236 236 236 235 233 231 230 228 221 216 214 213 212 214 217 220 223 228
348 352 356 351 346 345 343 341 346 358 359 351 346 342 339 338 337 336 334 335 335 333 332 331 329 327 324 321 320 319 318 316 315 313 310 310 310 310 311 312 306 300 303 309 310 308 309 310 309 312 319 320 318 322 320 311 304 304 303 295 271 245 234 230 231 233 235 235 235 234 234 232 232 232 230 224 220 217 216 216 217 217 219 225 229
355 356 352 346 343 346 344 345 358 3 354 348 346 343 341 339 337 336 337 337 335 332 331 330 328 327 324 322 322 321 320 318 317 315 313 313 316 316 315 315 314 311 310 312 313 312 312 314 320 332 341 340 335 332 330 323 313 307 306 306 292 268 251 241 236 234 233 235 235 233 232 231 232 233 232 227 225 222 219 219 218 216 220 227 230
357 351 348 344 344 348 350 355 3 358 349 347 345 342 342 339 337 339 339 336 333 332 331 330 328 327 326 324 324 324 324 322 320 319 318 318 320 320 317 316 316 315 314 317 320 321 321 323 332 342 342 341 340 334 325 318 312 304 300 296 288 275 264 255 249 243 237 235 233 231 230 230 230 232 232 230 228 227 223 220 218 219 223 227 227
354 348 348 347 348 353 352 353 355 351 347 346 345 343 343 339 339 340 337 334 333 333 332 331 329 328 327 327 328 328 327 325 324 324 322 322 324 324 320 318 317 316 320 323 325 331 334 335 337 337 335 338 341 335 324 319 316 309 301 292 285 280 272 259 251 248 244 240 236 233 230 228 228 231 232 231 230 228 224 220 220 223 226 227 226
347 346 352 354 355 354 350 348 349 347 346 347 347 344 341 339 339 339 336 334 335 334 332 330 329 329 329 329 330 330 330 328 328 328 326 325 327 327 326 326 325 323 324 325 329 336 337 333 331 328 324 327 330 329 323 317 312 308 301 291 283 280 276 264 254 250 246 244 246 246 240 233 229 230 230 229 227 225 222 220 222 224 224 224 222
342 349 358 0 356 350 347 347 348 347 347 349 348 343 340 339 338 336 335 335 335 333 332 331 331 331 331 331 332 332 332 331 331 332 329 326 328 330 329 330 329 326 325 325 328 332 330 325 323 320 315 314 318 324 326 323 315 307 296 286 281 278 274 266 258 254 250 248 250 249 246 238 229 225 223 222 222 223 224 225 227 229 223 214 205
346 356 1 358 352 347 345 346 348 349 349 348 346 343 339 338 336 335 335 335 334 333 332 332 332 332 332 333 333 333 333 334 334 334 330 328 330 330 329 330 331 329 327 324 323 323 321 318 315 309 306 310 316 320 324 331 333 320 302 290 285 279 271 262 256 251 248 248 247 245 243 242 236 226 219 217 220 225 228 226 225 224 214 197 183
355 0 356 351 347 345 345 346 347 349 348 346 345 343 338 336 336 336 336 335 334 334 333 333 334 334 334 334 334 334 335 337 337 338 336 333 333 332 330 330 330 329 326 322 318 315 312 309 306 301 299 307 317 321 324 332 338 333 325 316 298 276 263 257 254 249 243 240 238 237 234 232 228 221 216 217 221 220 216 212 211 206 193 178 172
359 356 350 347 346 345 346 346 346 346 346 344 342 342 340 338 337 337 336 336 336 335 334 334 334 334 335 336 336 336 337 338 340 342 341 340 339 337 333 329 328 327 325 321 317 315 311 303 300 302 303 310 320 325 329 336 341 343 340 331 312 268 239 240 237 227 219 214 209 207 208 206 204 199 196 198 201 197 194 194 192 183 173 169 171
355 350 347 347 346 344 344 344 343 343 342 341 341 342 342 340 339 339 339 337 337 336 335 335 335 336 336 337 337 337 337 338 339 341 341 340 339 338 333 328 326 323 318 315 313 311 307 302 302 308 312 317 326 334 340 344 346 345 340 333 330 143 152 164 163 157 156 156 154 155 159 162 160 154 149 149 153 159 164 165 162 159 158 160 163
350 347 348 347 345 342 341 340 341 341 341 341 342 342 342 342 341 341 341 339 338 337 336 336 337 338 338 338 338 338 338 338 338 339 340 340 338 335 328 325 330 328 317 311 310 310 313 319 324 327 328 324 328 341 350 351 353 355 353 12 99 109 113 120 131 140 138 132 128 125 125 128 129 125 122 123 126 129 134 139 143 145 147 150 154
347 346 347 346 344 341 339 338 340 342 342 342 342 342 343 343 342 343 342 341 339 337 337 338 339 339 338 338 338 338 339 339 338 338 338 339 341 341 331 323 327 331 329 326 327 332 342 346 345 347 353 349 345 354 360 3 20 37 51 77 88 90 100 112 127 136 129 118 113 109 108 112 114 113 113 116 120 122 122 124 130 138 144 149 153
346 346 346 344 343 341 339 339 341 343 343 342 342 343 344 344 344 344 343 342 340 338 337 337 338 338 338 338 337 336 337 339 338 338 337 336 340 344 347 346 342 337 339 346 351 354 359 356 351 357 14 19 10 11 14 27 54 70 75 82 85 87 96 110 132 131 116 107 106 105 101 106 112 112 114 120 124 125 125 124 126 131 139 147 150
Height
840 839 838 838 837 836 834 833 832 830 828 826 824 823 821 820 818 815 813 811 809 807 805 804 803 801 799 796 793 791 790 789 788 788 787 786 785 784 782 781 780 778 778 778 778 777 775 775 774 774 774 773 772 770 769 768 768 767 767 766 765 764 763 763 765 767 770 774 778 780 781 783 784 785 785 786 788 790 793 795 797 800 802 805 807
840 839 838 838 837 835 834 832 830 828 826 824 823 821 819 817 815 813 811 809 807 806 804 803 802 800 797 795 792 790 789 788 786 785 785 783 782 781 780 778 777 776 775 775 775 774 773 772 772 771 771 770 770 769 768 767 766 766 766 765 764 763 762 762 763 765 766 768 772 777 781 783 783 783 783 783 784 786 789 791 794 796 799 801 804
839 839 839 838 837 835 833 831 829 827 825 824 822 820 818 816 814 812 810 808 807 805 804 802 800 798 796 793 791 789 788 786 785 783 782 781 780 779 777 776 775 773 772 772 772 771 770 769 769 768 768 767 767 766 766 765 764 763 764 764 763 762 762 761 761 761 762 763 767 772 776 779 781 781 780 779 780 782 784 787 790 792 794 798 801
840 840 839 838 837 835 833 830 828 826 825 823 821 819 817 815 812 810 809 807 806 804 802 801 798 796 793 791 789 787 785 784 782 781 780 779 777 776 775 773 772 771 770 769 769 768 767 766 766 765 765 765 764 764 763 763 762 762 761 762 762 761 760 760 760 760 760 761 764 767 770 774 774 773 773 774 776 779 781 782 785 787 790 793 796
841 841 840 838 837 834 833 830 828 826 825 823 821 819 816 814 811 809 808 806 804 803 801 799 796 794 791 788 786 784 782 780 779 778 777 776 775 773 772 770 769 768 767 766 766 765 764 763 763 762 762 762 761 761 760 760 760 760 759 759 760 760 759 758 759 759 759 759 759 761 765 768 765 763 768 773 775 776 776 778 780 783 786 788 790
843 842 840 838 837 835 833 831 829 827 826 823 820 818 816 813 810 808 807 806 804 801 799 797 794 792 790 787 785 783 780 778 777 776 775 773 772 770 769 768 766 765 764 763 763 762 761 760 760 759 758 758 758 758 757 757 757 757 758 757 757 757 757 757 756 756 757 757 757 756 756 757 757 759 764 769 772 774 774 775 777 779 782 784 785
843 842 840 839 837 835 834 832 830 828 825 823 819 817 814 811 809 808 806 804 802 800 797 795 792 790 789 787 785 783 781 778 776 775 773 771 770 768 767 765 764 763 761 760 760 759 758 757 757 756 754 754 755 754 754 753 754 754 755 755 755 755 755 755 754 754 754 754 754 754 753 754 756 757 757 759 767 772 772 773 775 776 779 780 781
843 842 840 839 837 836 835 832 830 827 824 821 817 815 812 809 808 806 804 802 799 797 795 793 790 788 787 785 784 782 780 778 775 773 771 770 768 766 765 763 762 761 759 758 757 756 755 754 753 753 751 750 750 750 750 750 750 751 752 752 752 752 753 753 752 752 752 751 751 752 752 753 755 755 753 752 756 762 766 770 771 773 776 776 777
843 842 840 839 838 836 834 832 829 826 822 819 816 813 810 808 806 803 801 799 797 795 792 790 788 786 784 783 781 779 777 776 773 771 769 768 766 764 762 761 759 758 757 756 754 753 752 751 750 749 748 747 747 747 746 747 747 747 748 748 749 749 750 751 750 750 749 749 749 750 750 751 753 754 753 751 750 752 757 763 765 770 774 772 773
842 842 840 839 837 835 833 830 827 824 820 818 815 812 809 806 804 801 798 796 794 792 790 788 785 784 782 780 778 776 774 772 770 768 767 765 763 762 760 759 757 756 755 754 752 750 749 748 747 746 745 745 744 743 743 743 743 744 744 745 745 746 746 747 747 747 747 746 746 747 747 748 749 750 750 749 748 747 750 755 759 764 766 765 767
842 841 839 837 835 832 830 826 823 821 818 817 814 811 809 806 803 800 797 795 792 790 788 786 783 781 779 776 775 773 771 769 767 766 764 763 761 759 758 757 756 754 753 751 750 748 747 745 744 743 742 742 741 740 739 739 740 740 741 742 742 742 743 743 744 744 745 744 744 744 744 744 744 745 745 746 746 745 747 751 755 758 758 759 761
840 838 834 832 829 827 825 823 821 819 818 816 815 812 810 807 804 800 797 794 791 788 786 784 781 779 776 773 771 769 768 766 764 763 762 760 759 757 756 754 753 752 750 749 747 746 744 742 741 740 739 738 737 737 736 736 736 737 737 738 738 739 739 740 740 740 741 742 741 740 740 741 741 741 742 743 744 744 744 747 751 755 756 757 758
838 834 831 829 827 825 824 822 820 819 818 817 814 812 809 806 803 799 796 793 790 787 785 783 780 777 773 770 767 765 764 763 762 760 759 758 756 755 754 752 750 749 748 747 745 744 742 740 738 737 735 735 734 733 733 733 733 733 733 734 734 735 736 736 737 737 737 738 739 738 738 738 738 739 740 740 741 742 743 745 748 751 753 755 757
836 834 832 831 829 827 824 821 820 819 818 816 813 811 808 805 802 798 794 791 789 786 784 781 777 774 771 767 764 762 760 759 758 757 756 755 753 752 751 750 748 747 746 744 743 741 740 737 736 734 732 731 730 729 729 729 729 729 729 729 730 731 732 733 733 733 734 734 735 736 736 735 735 736 737 738 738 739 740 742 746 750 751 753 755
835 834 833 831 828 826 823 821 820 818 816 814 812 809 806 803 800 797 793 790 788 785 781 778 774 770 768 764 761 759 757 756 755 754 753 751 750 748 748 747 746 744 743 741 740 738 736 734 732 730 729 728 727 725 724 724 725 725 725 725 725 726 727 728 729 730 730 731 732 733 733 733 732 732 733 734 735 736 737 738 742 746 750 753 754
834 832 830 828 826 823 821 820 818 816 814 812 809 807 804 801 798 795 792 789 786 782 778 775 771 767 764 760 758 757 756 754 753 751 750 748 746 745 744 743 742 741 739 737 735 734 732 730 728 726 725 724 723 722 721 721 721 721 721 721 721 722 723 723 724 725 726 727 728 729 730 730 730 730 730 731 732 733 734 735 736 739 744 749 753
831 830 828 825 823 821 820 818 816 813 811 809 806 804 801 799 796 792 790 786 783 779 776 772 768 764 761 758 756 756 754 752 751 749 747 745 743 742 741 740 739 737 735 732 730 728 727 726 724 722 721 720 719 718 717 717 717 717 717 717 717 718 719 719 720 721 722 723 723 724 725 726 727 727 727 727 729 730 732 732 733 734 737 741 746
830 828 826 823 821 819 817 815 813 811 808 806 803 801 799 796 793 790 787 784 780 776 772 769 766 763 759 757 755 753 752 750 748 746 744 742 740 739 738 736 734 732 730 727 725 722 721 720 719 718 717 716 715 714 713 713 713 713 713 713 714 715 716 716 716 717 718 719 719 720 721 722 723 724 724 724 725 727 728 729 730 732 733 735 739
828 825 823 821 818 816 814 811 809 807 805 802 800 797 795 793 790 788 785 781 777 773 770 767 764 761 758 755 753 750 748 746 744 742 740 738 737 735 734 731 729 727 724 722 720 718 717 715 715 714 713 712 711 710 709 708 709 709 709 709 710 711 712 712 712 713 714 715 716 716 716 717 719 720 721 721 722 723 724 726 727 729 731 732 735
825 822 820 817 815 813 810 808 805 803 801 798 796 794 791 789 787 785 782 777 773 770 767 764 761 758 755 753 750 747 745 742 740 738 736 735 734 731 729 727 724 722 720 718 716 714 713 711 710 710 709 708 707 706 705 704 705 705 705 705 706 708 708 708 709 710 710 711 712 712 713 713 715 716 717 718 719 720 720 722 724 725 728 730 732
821 818 816 813 811 809 806 805 802 800 797 795 793 791 789 787 784 782 778 773 769 766 763 760 757 755 752 750 747 744 742 739 737 735 733 732 730 728 725 723 721 718 716 715 713 711 710 708 706 705 704 704 703 702 701 701 701 700 701 702 703 704 705 705 706 706 707 708 708 709 709 710 712 713 714 715 716 717 718 718 720 722 724 727 729
817 814 812 809 807 805 802 801 798 796 794 792 790 788 786 783 780 778 775 770 765 762 759 757 754 752 749 746 744 741 739 737 734 733 730 728 726 724 721 719 717 715 713 711 709 708 706 705 703 701 700 699 698 698 697 697 697 697 698 698 699 700 701 701 702 703 704 705 705 706 706 707 709 710 711 713 714 715 716 716 717 718 720 723 726
813 810 808 806 804 801 799 797 795 793 791 789 788 785 783 781 777 775 770 766 762 759 756 753 751 748 746 743 741 738 736 734 732 730 728 726 723 720 718 716 714 712 710 708 706 704 703 702 700 698 696 695 694 694 694 694 694 694 694 695 696 696 697 698 699 699 700 702 703 703 704 705 707 708 709 710 711 713 714 714 715 716 718 720 722
809 807 804 802 800 798 795 793 791 789 787 786 785 783 781 778 775 773 768 762 759 756 753 750 747 745 742 740 737 735 733 731 730 728 726 723 720 718 716 714 711 709 707 706 704 702 701 699 697 695 694 693 692 691 691 691 691 691 691 692 693 693 694 694 695 696 697 698 700 700 701 703 704 705 707 708 709 710 711 713 714 715 716 718 720
805 803 800 799 797 794 792 790 787 785 784 783 781 780 778 775 772 769 765 760 757 754 750 747 745 742 739 737 735 733 731 729 728 726 723 721 718 716 714 711 709 707 705 703 701 699 698 696 694 693 691 690 690 689 689 688 688 689 689 689 690 690 691 691 692 693 694 695 696 697 698 700 702 703 704 705 707 708 709 711 712 713 714 716 718
802 800 797 795 793 791 789 787 784 783 781 780 779 777 774 772 769 766 762 758 755 751 748 745 743 740 737 734 733 731 729 727 725 723 720 718 716 713 711 709 706 704 702 701 699 697 695 693 691 690 689 688 688 687 687 686 686 686 686 687 687 688 688 688 689 690 691 692 693 694 695 697 699 700 701 703 704 705 707 708 709 711 713 714 716
799 797 795 792 790 788 786 784 782 781 780 779 777 775 772 769 766 763 760 756 752 749 746 743 740 738 735 733 731 729 727 724 722 720 717 715 712 710 708 706 704 702 700 698 696 694 692 691 689 688 687 686 686 685 684 684 684 684 684 684 684 685 685 686 686 687 687 689 690 691 692 694 695 697 698 700 701 703 704 705 706 708 710 712 714
796 794 792 789 786 784 782 781 779 779 779 777 775 773 770 767 764 760 757 753 750 747 744 741 738 736 734 732 729 727 725 722 719 717 714 711 709 707 705 703 701 700 698 696 694 692 690 688 687 686 685 684 683 682 682 681 681 681 681 682 682 682 682 683 683 684 684 685 686 687 689 690 692 693 695 697 699 700 702 703 704 706 708 710 711
793 791 789 787 784 782 779 777 777 777 776 774 772 769 767 765 762 758 754 751 748 745 742 739 737 734 732 730 727 725 722 719 717 714 712 709 706 704 702 701 699 697 695 693 691 689 687 685 684 683 682 681 679 679 678 678 678 678 678 679 679 679 679 680 680 681 682 683 683 684 685 687 689 690 692 694 696 698 699 701 702 704 705 707 709
791 789 787 785 782 780 777 775 775 775 773 771 769 766 764 761 758 755 752 749 747 744 741 738 736 733 731 728 725 722 719 717 715 712 710 707 704 702 700 698 697 694 692 690 687 686 684 683 681 679 678 677 676 675 675 675 675 675 675 675 676 676 677 677 678 679 679 680 681 681 682 684 686 687 689 691 693 695 697 698 700 702 703 705 706
789 787 785 783 780 778 775 774 774 773 771 769 767 764 762 759 756 753 750 747 745 742 739 737 734 731 728 725 722 719 717 715 712 710 707 705 702 700 698 696 694 691 688 686 684 682 680 679 677 675 674 672 671 670 671 671 672 672 673 672 672 673 674 675 676 676 677 677 678 679 680 681 683 685 686 688 690 692 694 696 698 700 701 703 704
786 785 783 781 778 776 774 773 773 771 769 767 764 761 759 757 754 751 748 746 743 740 738 735 732 729 726 723 720 718 715 712 710 707 705 702 700 698 695 693 690 687 685 682 680 678 676 674 673 671 670 668 666 666 666 667 668 668 669 670 670 670 671 671 672 673 674 675 675 676 677 679 680 682 684 686 687 689 691 694 696 698 700 701 702
785 783 782 779 777 775 774 773 772 770 768 765 762 760 758 755 752 749 746 744 741 738 736 733 730 727 724 722 719 716 713 710 708 705 703 700 698 695 692 690 686 684 681 678 676 674 672 670 669 667 665 663 662 661 662 662 663 664 665 666 666 667 667 668 668 669 670 671 672 673 674 675 677 679 681 682 684 686 689 691 693 696 697 698 700
786 783 781 779 777 776 774 772 771 769 766 764 761 759 757 753 750 747 744 742 739 736 734 731 728 726 723 720 717 714 711 709 706 703 701 698 695 692 689 686 683 681 678 675 672 670 667 666 664 663 661 659 657 657 657 658 658 659 660 661 662 663 663 664 664 665 666 667 669 670 671 672 674 675 677 679 681 683 686 688 690 692 694 695 697
787 785 782 780 777 775 773 771 770 767 764 761 760 758 755 751 748 745 743 740 738 734 732 729 727 724 721 718 715 713 710 707 704 701 699 696 693 690 686 684 681 678 675 672 669 666 664 662 660 659 657 655 652 652 653 653 653 654 655 657 657 658 659 659 660 660 661 662 664 666 667 669 670 672 674 676 678 680 683 685 687 688 690 692 694
789 787 784 781 778 775 773 771 769 766 762 760 759 757 754 750 747 744 741 739 736 733 730 728 725 722 720 717 714 711 708 705 702 699 696 693 690 687 684 681 678 675 672 669 666 664 662 659 657 655 654 651 648 647 647 648 648 649 650 651 652 653 654 654 655 656 657 658 659 662 663 665 666 668 670 672 674 677 679 681 683 685 686 688 690
792 789 786 783 779 777 775 771 768 764 762 760 759 756 752 749 746 743 740 737 735 732 729 727 724 721 718 715 712 709 706 703 700 696 694 691 688 685 682 679 675 672 669 666 664 661 658 656 654 652 650 648 645 643 643 643 643 644 645 646 647 648 649 650 651 651 653 654 655 657 659 661 662 664 666 668 671 673 675 677 679 681 683 684 685
793 789 786 785 782 778 775 771 767 764 763 761 758 755 752 748 745 743 740 737 734 731 729 726 722 720 717 714 711 708 704 701 698 695 692 689 686 683 680 677 674 670 667 664 661 657 654 652 650 648 647 645 643 641 641 641 641 641 641 642 643 644 646 646 647 648 649 650 652 653 655 657 658 660 662 664 666 669 670 672 674 677 679 680 681
794 791 789 786 783 779 775 771 767 765 764 761 758 755 752 748 745 743 739 737 734 731 728 725 722 719 716 712 709 706 703 700 696 693 690 687 684 681 678 675 672 669 665 662 658 655 652 649 648 646 645 644 642 640 639 639 639 639 640 640 641 642 643 643 645 646 646 648 648 649 651 652 654 656 658 660 662 664 666 667 669 672 674 675 676
795 793 790 786 782 779 774 770 768 767 765 761 758 756 752 749 746 743 740 737 734 731 728 724 721 718 714 711 708 705 702 698 695 692 689 685 682 679 675 672 670 667 664 661 658 656 652 649 647 646 645 644 642 640 639 639 639 639 639 639 639 640 640 641 641 642 643 644 645 645 647 648 650 652 654 656 658 660 661 663 665 667 668 670 672
797 794 791 786 782 779 775 773 771 769 766 763 760 756 753 750 747 743 740 737 734 730 727 724 720 717 713 710 707 703 700 697 693 690 686 683 680 677 674 671 669 666 664 661 658 656 653 649 647 646 645 643 641 640 639 638 638 638 638 639 638 638 639 639 639 639 640 640 640 641 642 644 646 648 650 652 654 656 657 659 660 662 663 666 670
798 795 791 787 783 781 778 775 773 770 767 764 760 757 754 751 747 744 741 737 734 730 727 723 720 716 712 708 705 702 698 695 691 688 684 681 679 676 673 671 668 665 663 660 657 654 652 649 647 645 643 642 640 639 638 637 637 637 636 637 637 637 637 637 637 637 637 637 637 638 638 640 642 644 645 647 649 651 653 654 656 658 660 664 667
799 796 793 789 786 784 780 777 774 771 768 764 761 758 755 751 748 745 741 737 733 730 726 722 719 715 711 707 704 700 697 693 690 687 684 680 678 675 673 670 668 665 662 659 657 654 652 649 647 645 643 641 640 638 637 636 635 634 634 633 633 633 634 634 634 634 634 634 635 635 636 637 638 639 641 643 644 647 649 650 652 655 657 660 663
801 798 795 793 790 786 782 779 776 772 768 765 762 759 755 752 748 745 741 737 733 729 725 722 718 714 710 706 702 699 696 692 689 686 683 680 677 674 672 669 667 665 662 660 657 655 653 650 647 645 642 640 639 637 636 634 633 632 632 631 631 631 631 631 631 631 631 632 632 633 634 634 635 636 638 640 642 644 646 648 650 652 654 656 659
803 800 798 795 792 788 784 780 776 773 769 766 763 759 755 752 748 744 740 736 732 728 724 720 717 713 709 705 702 698 694 691 688 685 682 679 676 674 671 668 666 664 662 659 657 655 653 650 647 644 641 638 637 635 634 633 631 630 630 629 629 628 628 628 628 628 629 630 630 631 632 633 634 635 636 638 640 642 644 646 648 650 652 653 655
805 803 800 797 793 789 785 780 776 774 770 766 764 760 756 752 748 744 740 736 732 728 724 720 716 712 708 705 701 697 693 690 687 684 681 679 676 673 670 667 665 663 661 659 656 654 651 649 646 642 639 637 635 634 632 631 630 629 628 627 626 625 625 626 626 626 626 627 628 629 630 631 632 633 635 636 638 640 642 644 646 648 649 651 653
808 806 803 799 794 790 786 781 777 774 770 767 763 760 756 752 748 744 740 735 731 727 723 719 715 711 707 704 700 696 692 688 685 683 680 677 675 672 669 666 664 662 660 657 655 652 649 646 643 640 637 635 634 632 631 630 629 628 627 625 624 623 623 624 624 624 624 625 626 627 629 630 631 632 634 636 637 639 641 643 645 646 648 650 653
811 808 804 800 796 792 787 783 779 775 771 767 763 759 756 752 747 743 739 734 730 726 722 718 715 711 707 704 700 697 693 688 685 682 680 677 674 671 668 666 664 662 660 657 654 651 648 645 641 638 635 634 633 631 630 629 628 627 626 625 624 623 623 623 623 623 624 625 626 627 628 629 631 632 633 635 636 638 640 642 644 646 648 651 654
813 810 806 802 798 794 789 785 780 776 772 767 763 759 755 751 747 743 739 734 730 725 721 717 714 710 707 703 700 697 694 690 686 682 679 677 674 672 669 666 663 662 660 658 654 650 647 644 641 637 635 633 632 631 630 629 628 627 626 625 625 625 624 624 624 624 625 626 627 628 629 630 631 632 633 635 636 638 641 643 644 646 649 652 654
814 811 807 803 799 795 790 786 781 777 772 767 763 759 755 751 747 742 738 734 730 725 721 717 713 710 706 703 700 696 693 691 687 683 680 676 673 671 670 667 663 661 659 657 654 650 647 644 641 637 635 634 632 631 630 629 628 628 627 627 627 627 626 626 626 626 626 627 628 629 631 631 632 633 635 636 638 640 642 644 647 648 650 652 655
816 812 807 803 799 794 790 786 781 777 772 768 763 759 754 750 747 742 738 734 730 726 721 717 714 710 707 704 700 697 693 690 687 684 681 677 672 668 666 665 664 661 658 655 653 650 647 644 641 638 636 634 633 632 631 630 630 629 629 629 629 629 629 629 628 628 629 629 630 631 633 634 634 635 637 639 640 641 643 646 648 650 652 654 656